Date,TemperatureHighF,TemperatureAvgF,TemperatureLowF,DewpointHighF,DewpointAvgF,DewpointLowF,HumidityHigh,HumidityAvg,HumidityLow,PressureMaxIn,PressureMinIn,WindSpeedMaxMPH,WindSpeedAvgMPH,GustSpeedMaxMPH,PrecipitationSumIn
2013-3-1,74,55,41,52,45,38,94,72,42,30.46,30.22,7,1,9,0.00
2013-3-2,71,57,46,53,46,40,87,69,50,30.27,30.03,7,1,8,0.00
2013-3-3,63,54,47,48,45,42,86,74,52,30.12,30.00,15,2,15,0.00
2013-3-4,60,50,43,47,43,38,87,78,57,30.18,30.02,9,1,14,0.00
2013-3-5,61,50,40,43,40,36,89,70,49,30.09,29.81,20,3,21,0.06
2013-3-6,55,50,46,45,40,36,90,71,50,30.10,29.81,22,4,22,0.10
2013-3-7,56,52,47,43,40,35,87,65,49,29.94,29.82,8,2,10,0.03
2013-3-8,59,49,41,46,41,36,88,74,49,30.08,29.80,14,2,15,0.00
2013-3-9,69,51,37,44,38,34,92,66,32,30.33,30.02,17,2,18,0.00
2013-3-10,74,52,36,45,35,31,88,57,27,30.37,30.22,9,1,10,0.00
2013-3-11,75,54,38,47,39,32,84,59,32,30.28,30.08,9,1,9,0.00
2013-3-12,79,58,41,52,44,36,86,63,33,30.18,30.03,9,1,10,0.00
2013-3-13,81,60,44,56,48,40,91,68,40,30.19,30.04,11,1,11,0.00
2013-3-14,74,59,48,58,49,44,91,70,41,30.18,30.06,10,1,10,0.00
2013-3-15,73,56,44,54,46,39,87,68,40,30.15,30.01,8,1,10,0.00
2013-3-16,73,56,47,53,46,44,95,72,40,30.12,29.99,14,2,14,0.00
2013-3-17,72,54,40,47,42,35,88,66,38,30.17,30.01,13,1,16,0.00
2013-3-18,67,52,40,48,42,35,87,69,47,30.15,29.99,12,1,12,0.00
2013-3-19,71,54,44,47,43,35,88,69,40,30.16,30.03,11,1,14,0.05
2013-3-20,64,54,49,54,50,45,93,84,60,30.16,30.04,13,2,14,0.02
2013-3-21,68,53,43,49,42,36,88,67,37,30.15,29.97,12,2,13,0.00
2013-3-22,70,53,39,40,32,21,87,51,17,30.12,29.99,16,2,16,0.00
2013-3-23,72,52,37,39,32,27,71,49,23,30.17,30.01,9,1,11,0.00
2013-3-24,74,55,39,48,40,32,80,59,37,30.12,29.93,9,1,10,0.00
2013-3-25,62,50,41,45,41,36,89,73,50,30.04,29.91,14,2,14,0.00
2013-3-26,71,55,46,50,44,40,84,67,43,30.04,29.89,10,2,10,0.00
2013-3-27,67,56,46,52,46,40,83,72,56,30.04,29.92,15,2,15,0.00
2013-3-28,72,60,54,55,52,48,93,75,53,30.11,29.98,9,1,11,0.04
2013-3-29,77,61,46,56,49,43,92,68,43,30.12,29.97,11,1,12,0.00
2013-3-30,74,60,55,55,51,48,89,72,44,30.09,29.94,10,2,10,0.05
2013-3-31,67,58,50,53,50,47,91,77,50,30.10,29.97,14,1,14,0.10